AC5CM Weather Reports


Display with metric or nautical units.
time (UTC)temp
F
wind
direction
speed
MPH
gust
MPH
rain 1hr
in
rain 24hr
in
rain mn
in
humidity
%
barometer
mb
20260506192817 86 130 2.0 3.0 0.00 0.00 0.00 76 1010.1
20260506192314 85 165 3.0 8.0 0.00 0.00 0.00 77 1009.9
20260506191811 85 127 4.0 7.0 0.00 0.00 0.00 76 1010.0
20260506191307 85 322 1.0 8.0 0.00 0.00 0.00 76 1010.3
20260506190804 85 148 3.0 7.0 0.00 0.00 0.00 77 1010.2
20260506190301 86 113 4.0 7.0 0.00 0.00 0.00 76 1010.4
20260506185758 85 97 2.0 8.0 0.00 0.00 0.00 77 1010.3
20260506185254 85 125 3.0 4.0 0.00 0.00 0.00 77 1010.4
20260506184752 86 248 3.0 7.0 0.00 0.00 0.00 76 1010.5
20260506184249 87 320 3.0 6.0 0.00 0.00 0.00 74 1010.6
20260506183746 87 305 3.0 3.0 0.00 0.00 0.00 73 1010.5
20260506183246 87 106 3.0 6.0 0.00 0.00 0.00 74 1010.6
20260506182744 87 19 1.0 6.0 0.00 0.00 0.00 73 1010.6
20260506182241 86 108 1.0 4.0 0.00 0.00 0.00 74 1010.7
20260506181739 86 61 2.0 4.0 0.00 0.00 0.00 77 1010.9
20260506181236 86 116 2.0 4.0 0.00 0.00 0.00 77 1011.1
20260506180733 85 124 0.0 3.0 0.00 0.00 0.00 77 1011.0
20260506180234 86 151 3.0 4.0 0.00 0.00 0.00 76 1011.2
20260506175730 86 144 3.0 4.0 0.00 0.00 0.00 77 1011.2
20260506175227 85 56 0.0 3.0 0.00 0.00 0.00 78 1011.3
20260506174725 84 326 0.0 2.0 0.00 0.00 0.00 80 1011.3
20260506174221 84 191 1.0 3.0 0.00 0.00 0.00 80 1011.4
20260506173719 83 52 1.0 2.0 0.00 0.00 0.00 81 1011.3
20260506173216 83 115 2.0 4.0 0.00 0.00 0.00 82 1011.5
20260506172713 83 125 2.0 4.0 0.00 0.00 0.00 81 1011.7
20260506172209 83 126 0.0 2.0 0.00 0.00 0.00 82 1011.6
20260506171707 83 148 2.0 4.0 0.00 0.00 0.00 80 1011.7
20260506171204 84 149 4.0 4.0 0.00 0.00 0.00 79 1011.8
20260506170702 84 138 2.0 3.0 0.00 0.00 0.00 80 1011.7
20260506170158 83 111 2.0 4.0 0.00 0.00 0.00 83 1011.7
20260506165657 82 172 2.0 6.0 0.00 0.00 0.00 83 1011.7
20260506165153 82 149 1.0 4.0 0.00 0.00 0.00 83 1011.9
20260506164650 82 138 4.0 7.0 0.00 0.00 0.00 83 1011.7
20260506164148 82 96 3.0 6.0 0.00 0.00 0.00 83 1011.8
20260506163644 82 127 1.0 4.0 0.00 0.00 0.00 85 1011.6
20260506163139 82 148 2.0 3.0 0.00 0.00 0.00 86 1011.5
20260506162635 81 142 2.0 2.0 0.00 0.00 0.00 88 1011.5
20260506162133 80 121 1.0 3.0 0.00 0.00 0.00 89 1011.5
20260506161630 80 149 2.0 4.0 0.00 0.00 0.00 89 1011.4
20260506161127 80 125 4.0 8.0 0.00 0.00 0.00 88 1011.5
20260506160624 80 72 3.0 4.0 0.00 0.00 0.00 88 1011.2
20260506160121 80 121 2.0 3.0 0.00 0.00 0.00 89 1011.4
20260506155620 80 144 1.0 3.0 0.00 0.00 0.00 89 1011.2
20260506155117 79 96 2.0 2.0 0.00 0.00 0.00 91 1011.3
20260506153219 79 138 2.0 4.0 0.00 0.00 0.00 91 1011.1
20260506152715 79 124 1.0 4.0 0.00 0.00 0.00 90 1011.0
20260506152213 79 110 3.0 4.0 0.00 0.00 0.00 90 1010.9
20260506151712 79 156 2.0 7.0 0.00 0.00 0.00 90 1011.0
20260506151208 79 168 2.0 4.0 0.00 0.00 0.00 90 1011.0
20260506150704 79 155 3.0 4.0 0.00 0.00 0.00 90 1011.0
20260506150201 79 147 1.0 2.0 0.00 0.00 0.00 90 1010.8
20260506145658 79 142 2.0 6.0 0.00 0.00 0.00 90 1010.7
20260506145155 79 121 1.0 4.0 0.00 0.00 0.00 90 1010.6
20260506144653 79 74 2.0 6.0 0.00 0.00 0.00 90 1010.3
20260506144149 79 137 1.0 4.0 0.00 0.00 0.00 90 1010.5
20260506143647 79 136 4.0 6.0 0.00 0.00 0.00 90 1010.2
20260506143145 79 145 2.0 4.0 0.00 0.00 0.00 91 1010.3
20260506142643 79 138 1.0 4.0 0.00 0.00 0.00 91 1010.3
20260506142140 79 141 3.0 7.0 0.00 0.00 0.00 91 1010.4
20260506141638 79 143 4.0 6.0 0.00 0.00 0.00 91 1010.6
20260506141136 78 86 2.0 3.0 0.00 0.00 0.00 91 1010.2
20260506140633 78 116 2.0 4.0 0.00 0.00 0.00 91 1010.6
20260506140130 78 88 2.0 3.0 0.00 0.00 0.00 91 1010.5
20260506135627 78 126 1.0 3.0 0.00 0.00 0.00 91 1010.7
20260506135123 78 194 1.0 3.0 0.00 0.00 0.00 91 1010.5
20260506134620 78 145 0.0 3.0 0.00 0.00 0.00 92 1010.6
20260506134116 78 113 2.0 4.0 0.00 0.00 0.00 92 1010.7
20260506133614 78 99 2.0 3.0 0.00 0.00 0.00 93 1010.6
20260506133110 77 88 2.0 2.0 0.00 0.00 0.00 94 1010.6
20260506132608 77 165 2.0 3.0 0.00 0.00 0.00 95 1010.6
20260506132104 77 90 1.0 2.0 0.00 0.00 0.00 95 1010.6
20260506131602 77 147 2.0 2.0 0.00 0.00 0.00 95 1010.7
20260506131058 76 127 0.0 3.0 0.00 0.00 0.00 96 1010.7
20260506130555 76 107 1.0 2.0 0.00 0.00 0.00 96 1010.6
20260506130053 76 125 1.0 3.0 0.00 0.00 0.00 96 1010.7
20260506125551 76 175 0.0 1.0 0.00 0.00 0.00 96 1010.5
20260506125048 76 140 1.0 2.0 0.00 0.00 0.00 96 1010.4
20260506124546 76 128 0.0 2.0 0.00 0.00 0.00 96 1010.6
20260506124043 76 122 1.0 2.0 0.00 0.00 0.00 96 1010.6
20260506123541 76 139 0.0 3.0 0.00 0.00 0.00 96 1010.5
20260506123039 76 148 2.0 3.0 0.00 0.00 0.00 96 1010.4
20260506122535 76 117 1.0 3.0 0.00 0.00 0.00 96 1010.4
20260506122034 76 127 0.0 2.0 0.00 0.00 0.00 96 1010.3
20260506121531 76 121 2.0 3.0 0.00 0.00 0.00 96 1010.4
20260506121027 76 140 2.0 3.0 0.00 0.00 0.00 96 1010.3
20260506120525 76 134 1.0 3.0 0.00 0.00 0.00 96 1010.3
20260506120022 75 143 0.0 2.0 0.00 0.00 0.00 96 1010.2
20260506115520 75 123 0.0 2.0 0.00 0.00 0.00 96 1010.0
20260506115018 75 136 1.0 1.0 0.00 0.00 0.00 96 1010.2
20260506114515 75 127 0.0 1.0 0.00 0.00 0.00 96 1010.0
20260506114014 75 114 0.0 2.0 0.00 0.00 0.00 97 1009.8
20260506113511 75 124 0.0 1.0 0.00 0.00 0.00 96 1009.7
20260506113008 75 154 1.0 2.0 0.00 0.00 0.00 96 1009.8
20260506112505 75 144 1.0 2.0 0.00 0.00 0.00 96 1009.7
20260506112002 75 138 0.0 2.0 0.00 0.00 0.00 96 1009.7
20260506111500 75 135 0.0 2.0 0.00 0.00 0.00 96 1009.6
20260506110957 75 113 2.0 3.0 0.00 0.00 0.00 96 1009.6
20260506110455 75 136 2.0 2.0 0.00 0.00 0.00 96 1009.5
20260506105951 75 110 1.0 3.0 0.00 0.00 0.00 96 1009.7
20260506105447 75 134 1.0 2.0 0.00 0.00 0.00 96 1009.5
20260506104945 75 149 1.0 3.0 0.00 0.00 0.00 96 1009.7
20260506104443 75 135 2.0 2.0 0.00 0.00 0.00 96 1009.8
20260506103941 75 130 1.0 2.0 0.00 0.00 0.00 96 1009.5
20260506103438 75 117 2.0 3.0 0.00 0.00 0.00 96 1009.7
20260506102935 75 145 0.0 2.0 0.00 0.00 0.00 96 1009.9
20260506102433 75 125 0.0 2.0 0.00 0.00 0.00 96 1009.7
20260506101930 75 139 2.0 3.0 0.00 0.00 0.00 96 1009.7
20260506101426 74 144 1.0 2.0 0.00 0.00 0.00 96 1009.6
20260506100924 74 143 1.0 2.0 0.00 0.00 0.00 96 1009.5
20260506100422 74 154 2.0 2.0 0.00 0.00 0.00 96 1009.4
20260506095919 74 94 1.0 2.0 0.00 0.00 0.00 96 1009.5
20260506095418 74 147 1.0 1.0 0.00 0.00 0.00 95 1009.5
20260506094914 74 157 0.0 2.0 0.00 0.00 0.00 95 1009.4
20260506094413 75 186 1.0 1.0 0.00 0.00 0.00 95 1009.5
20260506093910 75 122 1.0 1.0 0.00 0.00 0.00 95 1009.4
20260506093407 75 111 0.0 2.0 0.00 0.00 0.00 95 1009.3
20260506092905 75 120 0.0 0.0 0.00 0.00 0.00 94 1009.3
20260506092403 75 126 0.0 0.0 0.00 0.00 0.00 94 1009.6
20260506091859 75 115 0.0 0.0 0.00 0.00 0.00 94 1009.4
20260506091357 75 131 0.0 0.0 0.00 0.00 0.00 94 1009.5
20260506090854 75 128 0.0 1.0 0.00 0.00 0.00 93 1009.7
20260506090352 75 126 0.0 1.0 0.00 0.00 0.00 93 1009.3
20260506085848 75 131 0.0 2.0 0.00 0.00 0.00 93 1009.4
20260506085345 75 139 1.0 2.0 0.00 0.00 0.00 93 1009.5
20260506084841 76 102 3.0 3.0 0.00 0.00 0.00 93 1009.5
20260506084338 75 135 1.0 2.0 0.00 0.00 0.00 93 1009.7
20260506083834 76 132 1.0 1.0 0.00 0.00 0.00 93 1009.4
20260506083332 76 182 2.0 3.0 0.00 0.00 0.00 92 1009.6
20260506082829 76 99 2.0 2.0 0.00 0.00 0.00 92 1009.7
20260506082326 76 138 2.0 3.0 0.00 0.00 0.00 92 1009.4
20260506081822 76 144 2.0 2.0 0.00 0.00 0.00 92 1009.7
20260506081320 76 137 1.0 3.0 0.00 0.00 0.00 91 1009.7
20260506080817 76 142 1.0 4.0 0.00 0.00 0.00 91 1009.6
20260506080313 76 113 2.0 4.0 0.00 0.00 0.00 91 1009.7
20260506073258 77 307 1.0 6.0 0.00 0.00 0.00 91 1010.1
20260506072754 77 152 3.0 4.0 0.00 0.00 0.00 91 1009.9
20260506072252 77 155 1.0 3.0 0.00 0.00 0.00 91 1010.2
20260506071750 77 125 2.0 2.0 0.00 0.00 0.00 91 1010.3
20260506071248 77 136 1.0 3.0 0.00 0.00 0.00 91 1010.1
20260506070744 77 133 1.0 2.0 0.00 0.00 0.00 91 1010.3
20260506070241 77 134 1.0 2.0 0.00 0.00 0.00 91 1010.3
20260506062218 77 138 1.0 2.0 0.00 0.00 0.00 91 1010.5
20260506061714 77 143 0.0 1.0 0.00 0.00 0.00 90 1010.5
20260506061212 77 103 1.0 2.0 0.00 0.00 0.00 90 1010.4
20260506060711 77 118 0.0 2.0 0.00 0.00 0.00 90 1010.5
20260506060207 77 106 0.0 1.0 0.00 0.00 0.00 90 1010.3
20260506051139 77 192 4.0 6.0 0.00 0.00 0.00 90 1010.2
20260506050637 77 133 3.0 6.0 0.00 0.00 0.00 90 1010.3
20260506050134 77 94 2.0 2.0 0.00 0.00 0.00 90 1010.4
20260506045127 77 93 0.0 2.0 0.00 0.00 0.00 90 1010.6
20260506044625 77 150 2.0 3.0 0.00 0.00 0.00 90 1010.4
20260506044122 77 88 5.0 6.0 0.00 0.00 0.00 90 1010.3
20260506043619 77 148 2.0 2.0 0.00 0.00 0.00 90 1010.4
20260506043117 77 141 3.0 3.0 0.00 0.00 0.00 90 1010.6
20260506042616 77 151 1.0 3.0 0.00 0.00 0.00 90 1010.5
20260506042113 77 143 2.0 3.0 0.00 0.00 0.00 90 1010.3
20260506041612 77 140 2.0 4.0 0.00 0.00 0.00 90 1010.1
20260506041108 77 158 3.0 4.0 0.00 0.00 0.00 91 1010.3
20260506040606 76 147 2.0 6.0 0.00 0.00 0.00 91 1010.0
20260506035559 76 151 3.0 4.0 0.00 0.00 0.00 91 1010.1
20260506035056 77 138 2.0 6.0 0.00 0.00 0.00 91 1010.0
20260506034553 77 140 1.0 3.0 0.00 0.00 0.00 90 1009.9
20260506034050 77 118 3.0 4.0 0.00 0.00 0.00 90 1010.0
20260506033547 77 121 3.0 6.0 0.00 0.00 0.00 90 1010.0
20260506033044 77 153 4.0 6.0 0.00 0.00 0.00 90 1009.8
20260506032542 77 144 4.0 7.0 0.00 0.00 0.00 89 1010.0
20260506032038 77 81 5.0 7.0 0.00 0.00 0.00 88 1009.9
20260506031536 77 115 4.0 7.0 0.00 0.00 0.00 88 1009.8
20260506031033 78 137 4.0 7.0 0.00 0.00 0.00 87 1009.7
20260506030531 78 144 4.0 4.0 0.00 0.00 0.00 87 1009.8
20260506030028 78 145 4.0 8.0 0.00 0.00 0.00 87 1009.7
20260506025525 78 113 2.0 6.0 0.00 0.00 0.00 87 1009.8
20260506025021 78 167 4.0 6.0 0.00 0.00 0.00 87 1009.5
20260506024518 78 238 1.0 3.0 0.00 0.00 0.00 86 1009.6
20260506024014 78 286 2.0 9.0 0.00 0.00 0.00 86 1009.4
20260506023510 78 131 4.0 4.0 0.00 0.00 0.00 86 1009.3
20260506023008 78 134 3.0 4.0 0.00 0.00 0.00 86 1009.4
20260506022505 78 127 3.0 6.0 0.00 0.00 0.00 86 1009.5
20260506022003 78 152 2.0 7.0 0.00 0.00 0.00 86 1009.3
20260506021500 78 170 5.0 8.0 0.00 0.00 0.00 85 1009.3
20260506020957 78 191 2.0 8.0 0.00 0.00 0.00 85 1009.2
20260506020455 78 99 2.0 7.0 0.00 0.00 0.00 85 1009.1
20260506015951 78 187 3.0 6.0 0.00 0.00 0.00 86 1008.8
20260506015449 78 287 1.0 4.0 0.00 0.00 0.00 86 1008.8
20260506014946 78 168 2.0 4.0 0.00 0.00 0.00 86 1008.7
20260506014443 78 129 2.0 7.0 0.00 0.00 0.00 85 1008.9
20260506013939 78 128 3.0 6.0 0.00 0.00 0.00 85 1008.5
20260506013437 78 134 0.0 7.0 0.00 0.00 0.00 85 1008.5
20260506012933 78 181 4.0 7.0 0.00 0.00 0.00 85 1008.6
20260506012430 78 180 0.0 3.0 0.00 0.00 0.00 85 1008.6
20260506011927 78 149 4.0 7.0 0.00 0.00 0.00 85 1008.5
20260506011424 79 222 2.0 6.0 0.00 0.00 0.00 84 1008.3
20260506010921 79 91 4.0 7.0 0.00 0.00 0.00 84 1008.4
20260506010420 79 256 1.0 3.0 0.00 0.00 0.00 84 1008.3
20260506005915 79 110 4.0 6.0 0.00 0.00 0.00 84 1008.1
20260506005414 79 356 1.0 7.0 0.00 0.00 0.00 84 1008.1
20260506004909 79 169 4.0 6.0 0.00 0.00 0.00 83 1008.0
20260506004407 79 82 2.0 4.0 0.00 0.00 0.00 83 1008.1
20260506003902 79 197 4.0 7.0 0.00 0.00 0.00 83 1007.9
20260506003359 79 164 3.0 7.0 0.00 0.00 0.00 83 1008.0
20260506002855 79 116 4.0 7.0 0.00 0.00 0.00 82 1007.8
20260506002352 80 145 2.0 6.0 0.00 0.00 0.00 82 1008.0
20260506001848 80 125 1.0 8.0 0.00 0.00 0.00 82 1007.8
20260506001344 80 132 4.0 9.0 0.00 0.00 0.00 82 1007.8
20260506000841 80 124 5.0 9.0 0.00 0.00 0.00 81 1007.8
20260506000340 80 123 5.0 10.0 0.00 0.00 0.00 81 1008.0
20260505235836 80 120 5.0 8.0 0.00 0.00 0.00 81 1007.9
20260505235333 80 123 2.0 8.0 0.00 0.00 0.00 81 1007.7
20260505234830 80 114 2.0 10.0 0.00 0.00 0.00 80 1007.8
20260505234328 80 135 2.0 8.0 0.00 0.00 0.00 80 1007.9
20260505233825 80 90 2.0 7.0 0.00 0.00 0.00 80 1007.9
20260505233323 80 126 2.0 6.0 0.00 0.00 0.00 80 1007.9
20260505232820 81 81 4.0 7.0 0.00 0.00 0.00 80 1007.6
20260505232317 81 146 5.0 6.0 0.00 0.00 0.00 79 1007.9
20260505231814 81 123 1.0 3.0 0.00 0.00 0.00 80 1007.9
20260505231312 81 246 3.0 4.0 0.00 0.00 0.00 79 1008.2
20260505230810 81 179 3.0 10.0 0.00 0.00 0.00 79 1008.0
20260505230307 81 157 4.0 7.0 0.00 0.00 0.00 79 1008.1
20260505225803 81 134 4.0 6.0 0.00 0.00 0.00 78 1007.9
20260505225300 81 133 5.0 9.0 0.00 0.00 0.00 78 1007.9
20260505224755 82 148 5.0 9.0 0.00 0.00 0.00 77 1008.1
20260505224253 82 284 4.0 7.0 0.00 0.00 0.00 77 1008.0
20260505223751 82 130 3.0 6.0 0.00 0.00 0.00 76 1008.1
20260505223247 82 164 2.0 6.0 0.00 0.00 0.00 76 1007.9
20260505222743 83 310 3.0 8.0 0.00 0.00 0.00 76 1008.0
20260505222239 82 142 6.0 9.0 0.00 0.00 0.00 76 1008.1
20260505221737 83 146 4.0 7.0 0.00 0.00 0.00 76 1008.1
20260505221233 83 106 6.0 11.0 0.00 0.00 0.00 75 1008.2
20260505220730 83 233 0.0 7.0 0.00 0.00 0.00 75 1008.3
20260505220227 84 157 5.0 9.0 0.00 0.00 0.00 73 1008.2
20260505215726 83 167 2.0 4.0 0.00 0.00 0.00 75 1008.0
20260505215223 83 123 4.0 8.0 0.00 0.00 0.00 75 1008.1
20260505214720 83 130 4.0 4.0 0.00 0.00 0.00 76 1008.3
20260505214218 83 249 2.0 4.0 0.00 0.00 0.00 76 1008.4
20260505213715 83 331 1.0 6.0 0.00 0.00 0.00 76 1008.6
20260505213212 83 135 4.0 7.0 0.00 0.00 0.00 76 1008.5
20260505212708 83 5 1.0 7.0 0.00 0.00 0.00 76 1008.6
20260505212206 83 120 2.0 10.0 0.00 0.00 0.00 76 1008.7
20260505211702 82 161 2.0 4.0 0.00 0.00 0.00 76 1008.6
20260505211200 83 133 4.0 8.0 0.00 0.00 0.00 75 1008.6
20260505210656 83 274 2.0 6.0 0.00 0.00 0.00 74 1008.7
20260505210153 83 25 2.0 6.0 0.00 0.00 0.00 74 1008.8
20260505205650 84 244 3.0 7.0 0.00 0.00 0.00 73 1009.1
20260505205148 84 340 1.0 6.0 0.00 0.00 0.00 72 1009.1
20260505204645 84 148 4.0 4.0 0.00 0.00 0.00 73 1009.1
20260505204143 84 140 1.0 7.0 0.00 0.00 0.00 73 1009.2
20260505203640 84 166 4.0 9.0 0.00 0.00 0.00 73 1009.3
20260505203136 85 51 2.0 7.0 0.00 0.00 0.00 72 1009.4
20260505202632 85 89 3.0 6.0 0.00 0.00 0.00 72 1009.3
20260505202128 84 101 1.0 7.0 0.00 0.00 0.00 73 1009.7
20260505201625 84 142 4.0 8.0 0.00 0.00 0.00 74 1009.4
20260505201123 84 160 5.0 9.0 0.00 0.00 0.00 74 1009.5
20260505200621 84 102 3.0 9.0 0.00 0.00 0.00 75 1009.7
20260505200118 84 103 3.0 4.0 0.00 0.00 0.00 74 1009.7
20260505195614 84 215 3.0 4.0 0.00 0.00 0.00 75 1009.6
20260505195111 84 99 3.0 6.0 0.00 0.00 0.00 75 1009.6
20260505194608 84 25 1.0 4.0 0.00 0.00 0.00 73 1009.7
20260505194104 83 176 4.0 4.0 0.00 0.00 0.00 74 1009.8
20260505193601 83 125 2.0 4.0 0.00 0.00 0.00 74 1010.0